Regional Weather Roundup
Issued by NWS Mt. Holly, NJ

Home | Current Version | Previous Version | Text Only | Print | Product List | Glossary On
Versions: 1 2 3 4 5 6 7 8 9 10 11 12 13 14 15 16 17 18 19 20 21 22 23 24 25 26 27 28 29 30 31 32 33 34 35 36 37 38 39 40 41 42 43 44 45 46 47 48 49 50
000
ASUS41 KPHI 281110
RWRPHI

REGIONAL WEATHER ROUNDUP
NATIONAL WEATHER SERVICE MOUNT HOLLY NJ
700 AM EDT THU AUG 28 2014

NOTE:  "FAIR" INDICATES FEW OR NO CLOUDS BELOW 12,000 FEET WITH NO
SIGNIFICANT WEATHER AND/OR OBSTRUCTIONS TO VISIBILITY.

 * = STATION DOES NOT REPORT PRECIPITATION (E.G. RAIN, SNOW, ETC.)
        OR FOG.

NJZ015>026-281200-
SOUTHERN NEW JERSEY

CITY           SKY/WX    TMP DP  RH WIND       PRES   REMARKS
POMONA         MOCLDY    71  59  65 N13       29.88R
RIO GRANDE*    CLEAR     73  63  68 N7        29.89R
MILLVILLE      CLEAR     72  62  71 N8        29.89R
WRIGHTSTOWN    CLEAR     69  57  65 N10G20    29.88R
MOUNT HOLLY    CLEAR     70  55  59 N10       29.90R
TRENTON        CLEAR     67  54  63 N7        29.91R

$$
NJZ001>014-281200-
NORTHERN NEW JERSEY

CITY           SKY/WX    TMP DP  RH WIND       PRES   REMARKS
SUSSEX         PTCLDY    65  56  72 NW7       29.94R
ANDOVER*         N/A     62  55  77 VRB6      29.95R
NEWARK         PTCLDY    70  54  56 NW9       29.88S
TETERBORO      CLEAR     68  54  60 NW9       29.87R
CALDWELL       CLEAR     65  53  65 CALM      29.90R
SOMERVILLE     CLEAR     67  54  63 N6        29.90R
ALLAIRE*       CLEAR     70  54  56 NW8       29.89R
TOMS RIVER*    PTCLDY    70  59  68 NW5       29.89R

$$
PAZ043-044-047-054-055-060>062-066>071-281200-
EASTERN PENNSYLVANIA

CITY           SKY/WX    TMP DP  RH WIND       PRES   REMARKS
PHILADELPHIA   PTCLDY    72  57  59 N14       29.92R
NORTH PHILA    CLEAR     69  54  58 N6        29.93R
BLUE BELL      CLEAR     68  55  64 NW5       29.92S
DOYLESTOWN     CLEAR     64  55  72 N3        29.93R
QUAKERTOWN*    CLEAR     64  57  77 MISG      29.95S
POTTSTOWN      CLEAR     64  56  75 NW5       29.96R
LANCASTER      CLEAR     64  59  83 CALM      29.96R
COATESVILLE    CLEAR     64  61  88 NW3       29.96R
READING        CLEAR     65  56  72 N12       29.95R
ALLENTOWN      CLEAR     63  55  75 NW7       29.95R
MOUNT POCONO   PTCLDY    57  52  83 NW15G26   29.97R
HAZLETON       PTCLDY    57  54  88 NW6       30.04R
WILKES BARRE   CLOUDY    61  54  77 CALM      30.01R

$$
DEZALL-MDZ008-012-015-019-020-281200-
DELAWARE AND EASTERN MARYLAND

CITY           SKY/WX    TMP DP  RH WIND       PRES   REMARKS
WILMINGTON     CLEAR     70  59  68 N8        29.93R
DOVER          PTCLDY    72  70  92 NW10      29.89R
GEORGETOWN     CLEAR     72  67  84 VRB6      29.90R
EASTON         PTCLDY    73  72  94 N5        29.96R
PATUXENT       CLOUDY    75  69  81 NW10      29.92R
OCEAN CITY     CLEAR     72  68  87 N7        29.88R
WALLOPS ISLAND CLEAR     74  70  87 NW7       29.88R
CAMBRIDGE      CLEAR     77  70  78 N7        29.91R
SALISBURY      CLEAR     73  68  84 NW5       29.89R

$$
PAZ001-021-NYZ056-072-MDZ011-DCZ001-281200-
OTHER NEARBY LOCATIONS

CITY           SKY/WX    TMP DP  RH WIND       PRES   REMARKS
HARRISBURG     PTCLDY    68  57  68 NW8       29.98R
STATE COLLEGE  PTCLDY    59  55  88 NW6       30.05R
WILLIAMSPORT   CLOUDY    64  55  72 W5        30.00R
BINGHAMTON     PTCLDY    55  53  93 NW6       30.01R
NEW YORK CITY  CLEAR     69  54  58 VRB7      29.91R
BALTIMORE      PTCLDY    71  66  84 CALM      29.94R
WASHINGTON DC  MOCLDY    77  66  68 NW13      29.96R

$$



USA.gov is the U.S. government's official web portal to all federal, state and local government web resources and services.